User: anonymous   Login
Location: Unspecified
(0.0000°N, 0.0000°E)
Time: 06:09:23
(UTC+00:00)
Language:

Alouette 1 - Orbit

View from above orbital plane
View from above orbital plane
View from above satellite
View from above satellite

Ground track
Ground track

The orbit data is extracted from the following two-line orbital elements,

1   424U 62049A   17081.87236209 +.00000023 +00000-0 +16209-4 0  9992
2   424 080.4703 352.4850 0022509 299.7357 104.2302 13.69077865719259
Epoch (UTC): 22 March 2017 20:56:12
Eccentricity: 0.0022509
inclination: 80.4703°
perigee height: 986 km
apogee height: 1019 km
right ascension of ascending node: 352.4850°
argument of perigee: 299.7357°
revolutions per day: 13.69077865
mean anomaly at epoch: 104.2302°
orbit number at epoch: 71925

The dashed part of the orbit path shows where the satellite is in the earth's shadow,  

DLR